THOR 5 (32487 NORAD) Tracking and Keplerian Element Data

This shows tracking and keplerian element data for the satellite.

Feedback or suggestion? Click here.




ElementValue
Catalog32487
NameTHOR 5
Epoch Orbit6552
Epoch Day354.15878257
Epoch Year2025
RAAN255.9826
Inclination0.0469
Eccentricity0.0002422
Argument of Perigee26.5053
Mean Anonmoly222.919
Mean Motion1.00272553
Decay Rate1.5E-07
L11 32487U 08006A 25354.15878257 .00000015 00000+0 00000+0 0 9994
L22 32487 0.0469 255.9826 0002422 26.5053 222.9190 1.00272553 65521



Live tracking and technical data element details for THOR 5 (NORAD 32487). THOR 5 can be tracked NOW for your location showing map with azimuth and elevation plus other details from your city location.







IsCatalogInMostPopularTable: catalog: 32487, numindb: 410
Update: records affected: 1



GetName: 32487 THOR 5

Hit Count: updated at: Wed, 15 Apr 2026 01:13:30 GMT